| time (UTC) | temp F | wind direction | speed MPH | gust MPH | rain 1hr in | rain 24hr in | rain mn in | humidity % | barometer mb |
| 20260506090343 | 49 | 50 | 0.0 | 2.0 | 0.00 | 0.00 | 0.00 | 100 | 1018.0 |
| 20260506085347 | 49 | 180 | 0.0 | 2.0 | 0.00 | 0.00 | 0.00 | 100 | 1018.0 |
| 20260506084341 | 49 | 240 | 0.0 | 1.0 | 0.00 | 0.00 | 0.00 | 100 | 1017.9 |
| 20260506083346 | 48 | 90 | 0.0 | 3.0 | 0.00 | 0.00 | 0.00 | 100 | 1017.9 |
| 20260506082351 | 48 | 139 | 0.0 | 4.0 | 0.00 | 0.00 | 0.00 | 100 | 1017.8 |
| 20260506081405 | 48 | 213 | 1.0 | 4.0 | 0.00 | 0.00 | 0.00 | 100 | 1017.8 |
| 20260506080349 | 47 | 90 | 1.0 | 2.0 | 0.00 | 0.00 | 0.00 | 100 | 1017.7 |
| 20260506073342 | 46 | 0.0 | 0.0 | 0.00 | 0.00 | 0.00 | 97 | 1017.4 | |
| 20260506072347 | 46 | 0.0 | 0.0 | 0.00 | 0.00 | 0.00 | 97 | 1017.3 | |
| 20260506071351 | 46 | 0.0 | 0.0 | 0.00 | 0.00 | 0.00 | 96 | 1017.2 | |
| 20260506070345 | 46 | 0.0 | 0.0 | 0.00 | 0.00 | 0.00 | 96 | 1017.2 | |
| 20260506062351 | 46 | 0.0 | 0.0 | 0.00 | 0.00 | 0.00 | 92 | 1016.9 | |
| 20260506061345 | 46 | 0.0 | 0.0 | 0.00 | 0.00 | 0.00 | 93 | 1016.9 | |
| 20260506060349 | 46 | 135 | 0.0 | 1.0 | 0.00 | 0.00 | 0.00 | 93 | 1016.9 |
| 20260506051350 | 48 | 145 | 1.0 | 2.0 | 0.00 | 0.00 | 0.00 | 91 | 1016.9 |
| 20260506050344 | 48 | 126 | 1.0 | 2.0 | 0.00 | 0.00 | 0.00 | 90 | 1016.9 |
| 20260506044423 | 49 | 165 | 1.0 | 2.0 | 0.00 | 0.00 | 0.00 | 89 | 1016.7 |
| 20260506043348 | 49 | 284 | 0.0 | 2.0 | 0.00 | 0.00 | 0.00 | 91 | 1016.7 |
| 20260506042341 | 49 | 179 | 1.0 | 2.0 | 0.00 | 0.00 | 0.00 | 89 | 1016.5 |
| 20260506041426 | 50 | 5 | 0.0 | 1.0 | 0.00 | 0.00 | 0.00 | 88 | 1016.3 |
| 20260506040411 | 50 | 233 | 1.0 | 3.0 | 0.00 | 0.00 | 0.00 | 89 | 1016.1 |
| 20260506035344 | 51 | 0.0 | 0.0 | 0.00 | 0.00 | 0.00 | 84 | 1015.9 | |
| 20260506034349 | 51 | 0.0 | 2.0 | 0.00 | 0.00 | 0.00 | 84 | 1015.8 | |
| 20260506033343 | 52 | 45 | 0.0 | 3.0 | 0.00 | 0.00 | 0.00 | 84 | 1015.7 |
| 20260506032348 | 52 | 347 | 0.0 | 2.0 | 0.00 | 0.00 | 0.00 | 83 | 1015.7 |
| 20260506031341 | 52 | 302 | 0.0 | 5.0 | 0.00 | 0.00 | 0.00 | 84 | 1015.7 |
| 20260506030346 | 53 | 24 | 1.0 | 2.0 | 0.00 | 0.00 | 0.00 | 82 | 1015.7 |
| 20260506025351 | 53 | 39 | 1.0 | 3.0 | 0.00 | 0.00 | 0.00 | 82 | 1015.8 |
| 20260506024345 | 53 | 20 | 1.0 | 5.0 | 0.00 | 0.00 | 0.00 | 81 | 1015.8 |
| 20260506023349 | 54 | 24 | 2.0 | 6.0 | 0.00 | 0.00 | 0.00 | 81 | 1015.8 |
| 20260506022343 | 55 | 57 | 1.0 | 6.0 | 0.00 | 0.00 | 0.00 | 79 | 1015.7 |
| 20260506021348 | 55 | 327 | 1.0 | 2.0 | 0.00 | 0.00 | 0.00 | 78 | 1015.7 |
| 20260506020342 | 55 | 303 | 2.0 | 4.0 | 0.00 | 0.00 | 0.00 | 77 | 1015.7 |
| 20260506015347 | 55 | 25 | 1.0 | 7.0 | 0.00 | 0.00 | 0.00 | 78 | 1015.7 |
| 20260506014351 | 56 | 112 | 2.0 | 6.0 | 0.00 | 0.00 | 0.00 | 77 | 1015.6 |
| 20260506013345 | 56 | 60 | 2.0 | 6.0 | 0.00 | 0.00 | 0.00 | 75 | 1015.7 |
| 20260506012351 | 56 | 345 | 2.0 | 7.0 | 0.00 | 0.00 | 0.00 | 74 | 1015.8 |
| 20260506011343 | 57 | 357 | 3.0 | 5.0 | 0.00 | 0.00 | 0.00 | 74 | 1015.7 |
| 20260506010347 | 57 | 289 | 2.0 | 6.0 | 0.00 | 0.00 | 0.00 | 74 | 1015.7 |
| 20260506005341 | 57 | 162 | 2.0 | 6.0 | 0.00 | 0.00 | 0.00 | 74 | 1015.8 |
| 20260506004346 | 57 | 100 | 2.0 | 6.0 | 0.00 | 0.00 | 0.00 | 72 | 1015.8 |
| 20260506003351 | 58 | 74 | 1.0 | 5.0 | 0.00 | 0.00 | 0.00 | 71 | 1015.8 |
| 20260506002345 | 58 | 343 | 3.0 | 8.0 | 0.00 | 0.00 | 0.00 | 70 | 1015.9 |
| 20260506001350 | 59 | 322 | 1.0 | 4.0 | 0.00 | 0.00 | 0.00 | 69 | 1015.9 |
| 20260506000344 | 60 | 242 | 2.0 | 9.0 | 0.00 | 0.00 | 0.00 | 67 | 1016.0 |
| 20260505235408 | 60 | 325 | 2.0 | 7.0 | 0.00 | 0.00 | 0.00 | 66 | 1016.1 |
| 20260505234342 | 61 | 69 | 2.0 | 7.0 | 0.00 | 0.00 | 0.00 | 66 | 1016.3 |
| 20260505233347 | 62 | 272 | 1.0 | 4.0 | 0.00 | 0.00 | 0.00 | 66 | 1016.3 |
| 20260505232352 | 61 | 342 | 2.0 | 6.0 | 0.00 | 0.00 | 0.00 | 66 | 1016.4 |
| 20260505231346 | 61 | 235 | 3.0 | 7.0 | 0.00 | 0.00 | 0.00 | 68 | 1016.4 |
| 20260505230411 | 61 | 1 | 2.0 | 6.0 | 0.00 | 0.00 | 0.00 | 66 | 1016.5 |
| 20260505225344 | 61 | 334 | 2.0 | 6.0 | 0.00 | 0.00 | 0.00 | 66 | 1016.6 |
| 20260505224348 | 63 | 228 | 2.0 | 4.0 | 0.00 | 0.00 | 0.00 | 67 | 1016.6 |
| 20260505223343 | 63 | 344 | 1.0 | 5.0 | 0.00 | 0.00 | 0.00 | 67 | 1016.6 |
| 20260505222347 | 63 | 311 | 1.0 | 4.0 | 0.00 | 0.00 | 0.00 | 66 | 1016.7 |
| 20260505221352 | 63 | 59 | 1.0 | 5.0 | 0.00 | 0.00 | 0.00 | 64 | 1016.7 |
| 20260505220345 | 63 | 353 | 1.0 | 4.0 | 0.00 | 0.00 | 0.00 | 66 | 1016.8 |
| 20260505215350 | 64 | 310 | 2.0 | 4.0 | 0.00 | 0.00 | 0.00 | 62 | 1016.8 |
| 20260505214343 | 65 | 14 | 2.0 | 4.0 | 0.00 | 0.00 | 0.00 | 62 | 1016.9 |
| 20260505213348 | 65 | 5 | 4.0 | 6.0 | 0.00 | 0.00 | 0.00 | 59 | 1017.0 |
| 20260505212341 | 67 | 64 | 2.0 | 5.0 | 0.00 | 0.00 | 0.00 | 58 | 1017.1 |
| 20260505211346 | 67 | 240 | 2.0 | 4.0 | 0.00 | 0.00 | 0.00 | 62 | 1017.0 |
| 20260505210351 | 66 | 18 | 2.0 | 4.0 | 0.00 | 0.00 | 0.00 | 61 | 1016.9 |
| 20260505205345 | 66 | 120 | 1.0 | 3.0 | 0.00 | 0.00 | 0.00 | 65 | 1017.0 |
| 20260505204349 | 65 | 100 | 2.0 | 4.0 | 0.00 | 0.00 | 0.00 | 68 | 1017.0 |
| 20260505203423 | 64 | 213 | 2.0 | 5.0 | 0.00 | 0.00 | 0.00 | 67 | 1017.1 |
| 20260505202347 | 64 | 212 | 1.0 | 3.0 | 0.00 | 0.00 | 0.00 | 68 | 1017.2 |
| 20260505201401 | 63 | 221 | 1.0 | 4.0 | 0.00 | 0.00 | 0.00 | 67 | 1017.2 |
| 20260505200346 | 63 | 313 | 1.0 | 3.0 | 0.00 | 0.00 | 0.00 | 69 | 1017.2 |
| 20260505195411 | 62 | 47 | 1.0 | 4.0 | 0.00 | 0.00 | 0.00 | 70 | 1017.1 |
| 20260505194345 | 62 | 295 | 0.0 | 1.0 | 0.00 | 0.00 | 0.00 | 73 | 1017.1 |
| 20260505193410 | 61 | 340 | 2.0 | 3.0 | 0.00 | 0.00 | 0.00 | 73 | 1017.1 |
| 20260505192344 | 61 | 265 | 1.0 | 2.0 | 0.00 | 0.00 | 0.00 | 76 | 1017.1 |
| 20260505191349 | 60 | 7 | 0.0 | 3.0 | 0.00 | 0.00 | 0.00 | 76 | 1017.1 |
| 20260505190343 | 59 | 186 | 1.0 | 2.0 | 0.00 | 0.00 | 0.00 | 79 | 1017.0 |
| 20260505185408 | 58 | 353 | 0.0 | 2.0 | 0.00 | 0.00 | 0.00 | 79 | 1017.0 |
| 20260505184342 | 58 | 5 | 0.0 | 3.0 | 0.00 | 0.00 | 0.00 | 79 | 1017.0 |
| 20260505183346 | 58 | 0.0 | 1.0 | 0.00 | 0.00 | 0.00 | 81 | 1017.1 | |
| 20260505182351 | 58 | 13 | 0.0 | 2.0 | 0.00 | 0.00 | 0.00 | 82 | 1017.1 |
| 20260505181344 | 57 | 0.0 | 1.0 | 0.00 | 0.00 | 0.00 | 83 | 1017.0 | |
| 20260505180348 | 57 | 341 | 1.0 | 3.0 | 0.00 | 0.00 | 0.00 | 83 | 1016.9 |
| 20260505175342 | 56 | 47 | 1.0 | 2.0 | 0.00 | 0.00 | 0.00 | 85 | 1016.8 |
| 20260505174347 | 56 | 38 | 1.0 | 1.0 | 0.00 | 0.00 | 0.00 | 86 | 1016.7 |
| 20260505173351 | 56 | 0.0 | 1.0 | 0.00 | 0.00 | 0.00 | 88 | 1016.6 | |
| 20260505172346 | 56 | 0.0 | 1.0 | 0.00 | 0.00 | 0.00 | 89 | 1016.6 | |
| 20260505171349 | 55 | 33 | 0.0 | 3.0 | 0.00 | 0.00 | 0.00 | 90 | 1016.6 |
| 20260505170343 | 55 | 303 | 0.0 | 2.0 | 0.00 | 0.00 | 0.00 | 91 | 1016.6 |
| 20260505165348 | 55 | 321 | 0.0 | 2.0 | 0.00 | 0.00 | 0.00 | 92 | 1016.6 |
| 20260505164341 | 55 | 142 | 0.0 | 3.0 | 0.00 | 0.00 | 0.00 | 92 | 1016.6 |
| 20260505163346 | 54 | 341 | 0.0 | 3.0 | 0.00 | 0.00 | 0.00 | 94 | 1016.6 |
| 20260505162351 | 54 | 316 | 0.0 | 2.0 | 0.00 | 0.00 | 0.00 | 94 | 1016.6 |
| 20260505161344 | 54 | 268 | 0.0 | 1.0 | 0.00 | 0.00 | 0.00 | 95 | 1016.5 |
| 20260505160349 | 54 | 331 | 1.0 | 2.0 | 0.00 | 0.00 | 0.00 | 95 | 1016.5 |
| 20260505153352 | 53 | 330 | 0.0 | 1.0 | 0.00 | 0.00 | 0.00 | 98 | 1016.3 |
| 20260505152346 | 53 | 0.0 | 1.0 | 0.00 | 0.00 | 0.00 | 99 | 1016.2 | |
| 20260505151351 | 52 | 333 | 0.0 | 1.0 | 0.00 | 0.00 | 0.00 | 99 | 1016.1 |
| 20260505150344 | 52 | 44 | 0.0 | 1.0 | 0.00 | 0.00 | 0.00 | 99 | 1016.0 |
| 20260505140349 | 51 | 135 | 0.0 | 1.0 | 0.00 | 0.00 | 0.00 | 100 | 1015.4 |
| 20260505124341 | 49 | 90 | 0.0 | 1.0 | 0.00 | 0.00 | 0.00 | 99 | 1014.6 |
| 20260505123346 | 49 | 0.0 | 1.0 | 0.00 | 0.00 | 0.00 | 100 | 1014.5 | |
| 20260505122349 | 49 | 90 | 0.0 | 1.0 | 0.00 | 0.00 | 0.00 | 100 | 1014.5 |
| 20260505121343 | 49 | 0.0 | 0.0 | 0.00 | 0.00 | 0.00 | 100 | 1014.4 | |
| 20260505120347 | 49 | 0.0 | 0.0 | 0.00 | 0.00 | 0.00 | 99 | 1014.3 | |
| 20260505115352 | 48 | 0.0 | 0.0 | 0.00 | 0.00 | 0.00 | 100 | 1014.3 | |
| 20260505114405 | 48 | 0.0 | 0.0 | 0.00 | 0.00 | 0.00 | 100 | 1014.1 | |
| 20260505113349 | 48 | 0.0 | 0.0 | 0.00 | 0.00 | 0.00 | 100 | 1014.0 | |
| 20260505112343 | 47 | 0.0 | 1.0 | 0.00 | 0.00 | 0.00 | 100 | 1013.9 | |
| 20260505111348 | 47 | 0.0 | 0.0 | 0.00 | 0.00 | 0.00 | 100 | 1013.8 | |
| 20260505110352 | 46 | 0.0 | 0.0 | 0.00 | 0.00 | 0.00 | 99 | 1013.7 | |
| 20260505101342 | 45 | 146 | 1.0 | 1.0 | 0.00 | 0.00 | 0.00 | 93 | 1013.4 |
| 20260505100406 | 45 | 152 | 1.0 | 1.0 | 0.00 | 0.00 | 0.00 | 93 | 1013.3 |
| 20260505095351 | 45 | 0.0 | 0.0 | 0.00 | 0.00 | 0.00 | 93 | 1013.3 | |
| 20260505094345 | 45 | 135 | 0.0 | 1.0 | 0.00 | 0.00 | 0.00 | 93 | 1013.3 |
| 20260505093410 | 46 | 0.0 | 0.0 | 0.00 | 0.00 | 0.00 | 92 | 1013.3 | |
| 20260505092343 | 46 | 135 | 0.0 | 2.0 | 0.00 | 0.00 | 0.00 | 92 | 1013.1 |
| 20260505091408 | 46 | 135 | 1.0 | 1.0 | 0.00 | 0.00 | 0.00 | 91 | 1013.1 |